Temp
21 21 22 22 20 21 22 24 26 24 24 24 23 23 22 21 20 16 15 15 14 13 14 12 10 10 10 10 10 10 9 10 10 10 9 9 9 9 9 9 8 9 9 10 9 9 9 8 8
21 21 22 22 21 21 24 25 23 23 23 23 22 23 23 19 17 14 14 14 13 12 14 12 10 10 10 10 9 9 9 9 10 9 9 9 9 9 9 9 8 8 8 8 9 8 8 8 10
21 22 22 21 21 22 24 25 23 23 23 23 23 22 23 19 17 16 16 14 13 12 11 12 10 10 10 10 10 10 9 9 9 9 9 9 8 8 8 9 9 10 9 9 10 9 10 11 12
21 22 23 21 22 24 27 24 24 23 23 22 23 20 19 19 18 16 15 14 13 13 12 12 10 10 10 10 9 9 9 9 9 8 9 9 9 8 10 11 12 13 14 14 13 13 14 14 14
21 22 21 22 22 25 26 26 25 24 23 23 23 21 18 18 17 17 15 14 13 13 12 12 10 10 10 9 9 9 9 9 9 12 11 11 12 13 14 14 13 14 14 14 14 14 14 14 14
22 23 21 21 23 26 26 26 25 26 24 22 22 23 18 17 16 15 15 14 14 13 13 11 10 10 10 9 9 9 9 10 13 13 14 14 14 14 14 14 14 13 14 14 14 14 15 14 14
21 20 21 22 23 25 26 26 25 25 25 23 23 23 18 16 16 15 15 14 14 13 12 12 12 10 10 9 9 9 9 12 14 14 14 15 14 13 13 13 14 14 14 14 14 14 14 15 15
21 20 21 21 23 24 25 25 24 25 23 23 23 22 18 17 16 15 15 15 14 13 12 12 12 13 12 12 10 10 11 14 15 15 14 14 13 13 13 14 14 14 14 14 14 14 15 15 15
21 19 20 22 23 24 25 24 24 23 23 23 22 22 21 18 16 15 15 15 14 13 13 12 12 13 13 12 14 14 14 14 15 15 14 13 13 13 14 14 14 14 14 14 15 15 15 15 15
21 19 21 24 24 23 24 24 24 23 23 23 21 20 19 18 16 16 15 15 14 14 13 13 12 12 11 11 13 14 14 14 14 14 14 13 12 11 13 13 14 14 15 15 15 15 15 15 16
22 20 22 24 24 23 23 24 24 24 22 24 22 20 18 17 16 16 16 15 15 14 13 13 13 12 12 11 12 13 14 14 13 13 12 12 10 12 12 13 14 14 15 15 14 14 15 15 14
22 23 23 23 23 22 22 23 24 24 23 24 24 22 20 18 17 17 16 16 15 14 14 13 13 12 12 12 12 12 11 12 11 11 11 12 12 12 12 13 14 14 14 14 14 14 14 14 14
22 22 23 23 23 22 22 22 22 23 24 24 23 22 21 19 18 18 17 17 16 15 14 13 13 12 12 12 12 11 12 12 13 13 13 13 14 13 12 13 13 14 14 14 14 13 14 14 13
22 22 22 23 23 23 22 22 22 23 23 24 24 23 21 20 19 19 18 18 17 16 15 14 13 13 12 12 12 12 11 12 12 13 14 14 14 13 13 13 13 14 14 14 14 14 14 14 14
21 20 21 22 23 22 23 20 20 22 23 23 24 24 22 22 20 20 19 19 18 17 16 15 14 13 13 12 12 12 12 11 12 13 13 14 14 13 12 12 13 14 14 14 14 14 14 14 14
20 20 19 23 23 21 21 18 21 24 24 23 24 24 24 22 22 21 21 19 19 18 17 15 14 14 14 13 12 13 13 12 12 13 13 14 14 14 13 13 13 14 14 14 14 14 14 14 14
21 20 21 22 23 21 19 19 22 24 24 24 24 24 24 24 22 22 21 20 19 18 17 16 15 14 15 14 13 13 14 14 14 13 13 14 14 14 14 14 14 14 14 14 14 15 15 15 14
20 20 20 21 22 21 20 19 20 24 24 24 24 24 24 24 24 23 22 21 19 19 18 17 15 14 14 14 13 13 13 13 14 14 13 13 14 15 15 15 15 14 15 15 15 15 15 15 15
20 20 20 21 21 20 19 19 20 23 23 23 24 24 24 24 24 23 22 21 20 19 18 17 16 15 14 13 13 12 14 14 14 14 14 14 15 15 15 15 15 15 15 15 15 15 15 15 15
19 19 19 22 22 20 19 19 20 23 22 22 24 24 24 24 24 23 22 21 20 18 18 17 16 15 15 14 14 14 14 15 15 14 14 14 15 16 16 16 16 15 15 15 15 15 15 15 15
20 20 20 19 19 20 19 20 21 22 22 23 23 23 23 23 24 24 22 21 19 18 17 17 16 16 15 15 14 13 13 13 13 13 14 15 16 16 16 16 16 15 16 16 16 16 15 15 15
18 19 19 19 17 17 19 18 19 19 19 19 21 21 21 21 22 22 23 22 20 19 18 17 16 16 16 15 14 14 15 15 16 16 16 16 16 16 16 16 16 16 16 16 16 16 16 15 16
20 18 18 18 17 17 20 18 20 19 18 18 19 20 21 20 20 20 22 21 21 20 19 17 17 16 16 16 15 15 15 16 16 15 15 16 16 16 17 17 16 16 16 17 16 16 16 16 16
19 18 17 17 17 16 20 20 18 18 19 18 20 20 20 20 19 19 19 21 20 20 20 18 17 16 15 15 15 15 16 16 15 16 16 16 16 17 17 17 17 17 17 17 17 16 16 16 16
18 16 16 17 16 18 20 19 17 19 19 18 19 20 20 20 19 19 18 19 20 19 20 19 17 16 16 15 15 15 16 16 16 16 16 17 17 17 18 18 18 18 18 17 17 17 17 16 16
18 17 16 17 17 19 20 19 17 19 21 21 20 20 19 19 19 18 18 18 18 19 18 18 17 16 15 15 15 15 16 16 16 16 16 16 17 17 18 18 18 18 18 18 17 17 17 16 16
18 17 18 17 19 17 19 19 20 18 18 20 19 19 18 18 18 18 18 18 18 18 17 16 16 16 15 14 14 15 16 16 17 17 16 16 17 17 17 18 18 18 18 18 17 17 17 17 16
16 17 17 16 17 18 20 18 18 18 19 18 17 17 17 16 16 16 16 16 17 17 17 16 16 15 15 14 14 14 15 17 17 17 16 16 17 17 17 17 18 18 18 18 17 17 17 16 16
16 16 17 17 16 16 16 18 20 18 16 16 16 16 16 15 15 15 15 15 15 15 16 16 16 16 15 14 14 14 14 15 16 16 17 17 17 17 17 17 18 18 18 18 18 18 17 17 17
18 17 17 16 17 16 15 15 19 17 16 16 15 15 15 14 14 13 13 13 13 13 13 14 15 15 16 16 15 14 14 14 14 15 17 17 18 18 18 17 17 18 18 18 18 18 18 18 17
Height
1514 1514 1517 1517 1523 1513 1512 1503 1492 1500 1505 1510 1511 1511 1514 1514 1519 1531 1530 1531 1531 1531 1532 1535 1539 1541 1542 1544 1544 1546 1547 1547 1547 1548 1548 1548 1547 1547 1548 1547 1546 1548 1548 1547 1547 1546 1545 1543 1544
1513 1513 1516 1515 1521 1524 1508 1492 1500 1503 1508 1510 1512 1512 1512 1520 1521 1524 1528 1530 1531 1531 1533 1535 1539 1540 1543 1544 1545 1546 1546 1547 1548 1548 1549 1550 1550 1550 1549 1549 1548 1549 1549 1548 1547 1547 1547 1546 1546
1514 1514 1516 1512 1516 1520 1508 1496 1502 1506 1509 1510 1511 1513 1513 1522 1522 1525 1527 1530 1532 1533 1534 1535 1538 1540 1542 1544 1545 1546 1547 1548 1548 1549 1550 1550 1550 1551 1550 1549 1549 1548 1547 1547 1547 1548 1547 1547 1547
1514 1515 1514 1513 1513 1499 1493 1496 1502 1507 1510 1511 1511 1514 1519 1523 1524 1524 1527 1530 1533 1535 1534 1536 1539 1540 1542 1543 1545 1546 1547 1548 1547 1549 1549 1549 1550 1550 1550 1550 1549 1549 1549 1548 1549 1549 1549 1550 1549
1514 1513 1513 1513 1509 1495 1490 1495 1502 1505 1508 1510 1511 1514 1519 1523 1522 1524 1527 1531 1533 1535 1534 1536 1538 1540 1541 1543 1544 1546 1547 1547 1547 1548 1549 1550 1550 1550 1550 1550 1550 1550 1551 1551 1551 1551 1550 1551 1551
1513 1510 1516 1517 1504 1492 1489 1496 1502 1503 1506 1510 1512 1512 1521 1522 1522 1524 1528 1531 1533 1533 1534 1535 1538 1539 1540 1543 1545 1545 1546 1547 1547 1548 1549 1550 1551 1551 1552 1552 1552 1553 1553 1553 1553 1553 1552 1553 1553
1513 1513 1514 1507 1502 1492 1490 1496 1502 1503 1505 1509 1510 1510 1520 1521 1523 1525 1528 1531 1533 1534 1534 1535 1537 1539 1541 1542 1544 1545 1546 1546 1548 1549 1550 1551 1551 1552 1553 1554 1554 1554 1554 1555 1554 1554 1554 1555 1554
1512 1510 1512 1506 1504 1498 1492 1497 1502 1503 1506 1509 1510 1509 1518 1519 1522 1525 1528 1531 1533 1535 1535 1535 1536 1538 1539 1541 1542 1544 1545 1546 1547 1548 1549 1550 1551 1553 1554 1555 1555 1555 1556 1556 1555 1556 1556 1556 1557
1513 1515 1515 1505 1501 1497 1495 1498 1503 1505 1507 1509 1511 1510 1512 1516 1520 1524 1528 1531 1533 1534 1536 1536 1536 1538 1539 1541 1542 1543 1544 1545 1547 1548 1550 1551 1552 1554 1554 1555 1556 1556 1556 1556 1556 1557 1558 1558 1558
1511 1513 1506 1496 1496 1496 1497 1499 1502 1505 1506 1509 1511 1513 1514 1515 1518 1521 1524 1527 1529 1531 1534 1537 1537 1538 1539 1540 1541 1543 1544 1545 1547 1548 1550 1552 1552 1554 1554 1555 1556 1556 1556 1556 1557 1558 1558 1558 1558
1507 1511 1501 1500 1499 1499 1499 1501 1502 1503 1505 1504 1506 1509 1512 1514 1517 1519 1522 1524 1526 1529 1532 1535 1537 1538 1540 1541 1541 1542 1543 1545 1546 1547 1549 1551 1553 1554 1555 1555 1555 1556 1556 1556 1557 1558 1558 1558 1558
1507 1504 1502 1501 1502 1503 1503 1503 1501 1502 1503 1502 1503 1503 1507 1511 1513 1516 1519 1522 1524 1526 1529 1532 1534 1537 1538 1539 1539 1541 1542 1544 1545 1547 1549 1550 1552 1553 1553 1554 1554 1555 1556 1556 1557 1557 1557 1558 1558
1504 1503 1501 1501 1502 1503 1503 1502 1502 1500 1500 1501 1502 1503 1505 1508 1511 1514 1517 1520 1522 1523 1525 1529 1531 1533 1535 1537 1538 1540 1541 1543 1544 1545 1547 1549 1550 1552 1553 1554 1555 1555 1556 1556 1557 1557 1558 1558 1558
1503 1502 1501 1500 1499 1499 1500 1498 1499 1497 1497 1497 1499 1500 1501 1504 1507 1511 1514 1516 1519 1520 1521 1525 1527 1530 1532 1534 1536 1538 1540 1541 1543 1544 1546 1548 1549 1551 1552 1553 1554 1554 1555 1556 1556 1557 1558 1558 1558
1503 1504 1498 1494 1493 1494 1494 1496 1494 1490 1491 1493 1495 1496 1497 1499 1503 1506 1508 1512 1515 1517 1518 1520 1523 1526 1529 1531 1534 1536 1538 1539 1541 1542 1544 1546 1548 1549 1551 1552 1553 1554 1554 1555 1556 1557 1557 1558 1558
1501 1499 1504 1486 1488 1492 1496 1503 1487 1483 1483 1486 1488 1491 1492 1494 1497 1502 1505 1508 1512 1514 1515 1517 1519 1522 1525 1528 1530 1532 1534 1537 1538 1540 1542 1544 1545 1547 1549 1551 1552 1553 1554 1555 1555 1556 1557 1557 1557
1496 1505 1496 1490 1487 1490 1494 1495 1484 1481 1482 1482 1483 1484 1485 1489 1491 1496 1500 1503 1507 1510 1512 1513 1515 1517 1520 1524 1527 1528 1531 1533 1535 1537 1539 1541 1543 1545 1547 1549 1550 1551 1552 1553 1554 1555 1556 1556 1556
1507 1505 1498 1497 1487 1489 1492 1488 1483 1480 1477 1476 1477 1480 1481 1483 1486 1490 1495 1499 1502 1506 1508 1509 1511 1514 1516 1520 1523 1525 1528 1529 1532 1535 1537 1539 1540 1542 1545 1547 1548 1549 1550 1552 1553 1553 1554 1555 1555
1503 1503 1502 1492 1487 1490 1491 1487 1478 1473 1470 1469 1469 1473 1477 1479 1482 1485 1489 1495 1498 1501 1504 1505 1507 1510 1513 1515 1518 1520 1522 1526 1528 1531 1534 1536 1538 1540 1542 1544 1546 1547 1549 1550 1551 1552 1553 1553 1553
1503 1505 1502 1488 1485 1490 1487 1483 1474 1470 1468 1465 1465 1469 1472 1476 1478 1480 1484 1489 1493 1496 1499 1502 1503 1506 1509 1512 1514 1518 1520 1523 1526 1528 1530 1532 1534 1537 1539 1541 1543 1544 1546 1547 1548 1550 1551 1551 1551
1501 1502 1498 1502 1494 1484 1485 1482 1477 1473 1470 1468 1467 1468 1470 1474 1476 1476 1480 1483 1488 1492 1495 1498 1500 1501 1504 1508 1512 1515 1519 1520 1521 1523 1525 1528 1531 1533 1535 1538 1540 1541 1543 1544 1546 1547 1548 1549 1549
1507 1497 1497 1500 1505 1511 1488 1509 1487 1480 1480 1477 1476 1475 1474 1473 1473 1476 1478 1476 1479 1484 1490 1493 1496 1498 1500 1504 1506 1508 1510 1512 1514 1518 1521 1524 1527 1529 1532 1534 1536 1538 1540 1541 1543 1544 1545 1546 1547
1500 1498 1499 1500 1506 1506 1488 1504 1490 1484 1488 1487 1483 1481 1479 1478 1476 1473 1473 1478 1476 1479 1483 1487 1491 1494 1496 1499 1501 1504 1506 1509 1512 1515 1517 1519 1522 1525 1527 1529 1532 1534 1536 1538 1539 1540 1541 1543 1544
1498 1499 1495 1497 1504 1515 1488 1492 1500 1492 1489 1488 1486 1485 1483 1481 1480 1478 1475 1474 1477 1477 1479 1483 1486 1490 1494 1496 1498 1499 1501 1505 1508 1510 1512 1514 1516 1520 1522 1525 1527 1530 1532 1534 1535 1537 1537 1539 1539
1501 1505 1512 1515 1518 1505 1484 1493 1495 1487 1487 1487 1487 1486 1486 1484 1482 1480 1477 1474 1474 1477 1478 1480 1483 1485 1489 1492 1494 1496 1498 1501 1502 1505 1507 1509 1511 1513 1516 1519 1521 1524 1527 1529 1531 1532 1533 1534 1535
1498 1503 1516 1519 1514 1502 1486 1498 1496 1485 1485 1486 1487 1488 1488 1486 1484 1482 1480 1477 1474 1475 1477 1479 1480 1483 1485 1487 1489 1491 1493 1495 1497 1500 1502 1503 1505 1508 1511 1514 1516 1519 1521 1524 1526 1526 1528 1529 1529
1500 1507 1498 1506 1492 1505 1488 1486 1485 1485 1486 1485 1487 1488 1489 1488 1486 1485 1482 1481 1477 1476 1475 1477 1479 1480 1482 1483 1484 1485 1487 1488 1490 1493 1496 1497 1500 1503 1505 1508 1510 1512 1515 1517 1519 1521 1522 1523 1524
1502 1501 1508 1508 1517 1508 1486 1490 1489 1488 1487 1485 1488 1491 1492 1491 1489 1487 1485 1482 1480 1478 1476 1475 1476 1477 1478 1479 1480 1479 1481 1482 1484 1487 1488 1490 1493 1496 1498 1500 1503 1506 1508 1510 1513 1514 1516 1517 1518
1505 1504 1502 1501 1503 1514 1515 1498 1467 1484 1489 1490 1491 1493 1493 1493 1492 1490 1488 1485 1482 1479 1478 1477 1475 1474 1474 1474 1476 1477 1476 1477 1478 1480 1481 1483 1486 1488 1490 1492 1495 1498 1501 1503 1505 1507 1510 1511 1512
1494 1497 1497 1509 1506 1502 1510 1511 1477 1483 1489 1490 1494 1495 1495 1496 1495 1492 1490 1487 1484 1482 1479 1476 1474 1474 1473 1471 1471 1471 1472 1472 1473 1473 1474 1476 1477 1479 1482 1484 1485 1488 1492 1495 1496 1499 1501 1503 1504
Wind_Speed
9 5 8 8 2 4 9 2 6 6 4 5 4 5 5 18 5 3 16 10 15 13 14 21 17 14 11 9 11 11 11 11 11 9 10 10 10 12 14 13 14 14 14 15 17 15 16 15 14
8 4 6 5 3 5 5 8 11 10 10 7 4 1 4 5 7 16 18 15 17 14 14 17 17 13 12 12 12 10 11 10 11 9 11 11 11 10 11 13 12 12 12 13 13 15 14 15 16
10 5 6 4 4 8 1 10 9 12 7 4 4 2 6 5 9 15 11 19 18 12 14 14 17 15 12 13 12 11 9 8 9 9 9 10 9 10 9 10 11 12 13 12 14 14 14 15 17
6 5 7 4 10 11 2 11 15 10 5 2 1 9 9 11 8 14 21 22 19 16 16 12 17 16 15 13 11 11 9 9 8 8 9 10 8 9 9 9 10 11 13 13 13 13 14 15 16
7 6 4 5 11 15 6 14 9 6 9 9 4 6 9 10 10 11 25 22 20 19 16 15 17 15 15 12 12 11 11 9 9 8 8 7 6 7 9 9 10 11 11 11 11 12 12 13 13
7 5 5 6 10 13 6 11 6 2 10 7 4 7 7 9 11 18 23 20 19 19 14 17 17 16 13 12 11 10 9 9 7 6 6 6 7 7 7 8 9 9 9 9 9 10 11 11 12
7 4 7 10 10 8 6 12 6 6 7 8 2 1 12 13 15 19 22 19 18 17 11 13 14 16 15 15 12 11 11 8 8 7 7 6 6 6 6 7 7 7 8 8 9 9 10 10 11
5 3 9 8 9 6 8 9 5 1 6 9 3 0 10 18 18 20 20 19 18 18 14 10 11 13 15 13 13 11 9 8 7 7 6 6 5 5 5 5 6 5 6 6 7 7 8 9 9
4 3 5 9 6 6 10 4 5 1 6 4 4 5 13 18 21 21 22 20 20 19 19 13 10 9 10 10 10 11 10 9 8 7 6 6 5 4 3 4 4 4 4 5 6 6 6 7 8
3 3 8 6 8 8 8 2 7 4 7 7 10 11 14 17 21 25 26 25 23 22 22 19 15 10 9 8 10 9 10 9 8 7 7 6 4 3 1 2 2 2 3 4 5 5 5 5 6
6 6 11 8 11 11 13 8 7 4 6 10 21 17 19 18 20 24 25 25 25 23 22 22 22 16 16 17 14 12 10 9 8 6 5 6 7 7 5 3 1 1 2 2 4 3 4 6 6
3 14 15 8 8 3 8 14 10 8 14 14 4 23 21 20 22 24 24 24 25 24 23 23 23 23 22 21 17 11 12 10 11 13 13 11 11 7 4 2 1 2 1 1 2 3 4 3 6
7 12 15 5 10 9 13 14 9 19 15 14 8 10 18 18 20 21 22 23 24 25 25 26 24 25 23 20 17 14 14 14 13 13 13 12 10 8 7 5 4 3 2 2 2 2 3 4 3
15 15 14 16 14 13 11 13 15 14 15 18 14 16 18 19 21 21 22 24 26 26 26 26 27 25 24 22 19 18 15 14 13 13 12 12 10 9 7 6 5 5 4 3 2 2 2 2 2
9 10 10 15 19 10 9 8 10 27 27 20 20 24 22 23 22 24 25 26 27 28 27 26 27 26 25 23 21 19 18 17 15 15 13 12 12 10 8 8 7 7 5 4 3 3 2 1 1
8 9 7 4 7 5 7 8 13 18 21 27 26 24 23 25 25 25 25 25 27 28 29 28 27 27 26 25 24 22 22 21 18 17 14 14 13 12 12 11 10 8 7 6 5 3 2 2 0
7 5 7 5 9 6 7 7 8 16 2 7 14 19 20 20 26 26 26 26 27 29 30 30 29 28 26 26 25 24 22 22 21 18 16 15 15 14 14 13 11 10 9 7 6 4 3 2 2
6 7 9 8 3 5 8 13 9 22 23 23 20 19 18 22 23 26 26 26 26 29 30 32 30 28 27 25 25 24 22 21 20 20 18 17 17 17 16 15 13 12 10 9 7 5 4 3 2
7 8 8 9 6 4 7 10 13 19 13 18 19 25 22 19 19 22 26 27 27 30 31 32 33 31 29 29 29 28 27 24 23 21 20 20 19 19 19 17 16 14 12 10 8 7 6 4 3
7 9 10 5 2 6 8 15 14 3 6 7 7 18 18 19 18 21 25 29 30 31 33 33 34 33 31 31 30 28 26 24 23 23 23 22 22 21 20 19 17 15 14 12 10 9 7 6 4
8 7 5 5 9 11 9 4 6 6 17 14 15 11 5 8 11 20 24 30 31 31 34 36 36 35 33 31 30 27 25 24 25 26 26 25 24 23 22 19 18 17 16 14 13 12 10 8 7
7 6 5 6 7 4 6 2 8 8 11 12 22 21 18 14 8 6 22 32 33 33 33 34 37 37 35 32 33 33 33 31 30 28 26 25 25 25 24 22 21 20 19 17 14 13 11 11 10
2 5 6 6 6 6 2 1 1 9 8 9 14 24 20 18 15 9 10 11 31 30 30 35 35 37 36 35 35 35 35 33 30 29 27 27 25 26 25 24 24 23 22 19 17 16 15 14 14
8 7 11 7 4 3 5 2 3 4 7 7 13 21 21 17 17 16 13 17 8 26 27 31 35 36 36 37 36 37 36 33 33 32 29 28 27 27 27 27 26 25 25 23 21 18 18 16 16
5 5 3 1 2 2 4 2 6 8 7 9 8 17 23 22 21 20 22 20 20 11 27 29 33 34 35 37 38 38 37 34 34 31 31 30 30 30 29 29 28 28 26 25 24 22 21 20 20
4 3 2 4 4 1 2 3 6 9 7 12 22 22 22 24 24 24 23 22 18 14 10 24 30 33 33 35 38 38 37 37 36 34 33 34 32 31 29 29 29 29 29 28 27 26 25 23 22
3 2 1 4 5 2 4 6 6 9 6 2 21 23 24 25 24 24 24 24 22 21 13 14 22 27 32 33 35 37 37 38 39 36 36 37 35 33 32 31 31 31 31 31 30 30 27 26 25
3 5 1 2 2 4 4 7 4 10 7 9 13 23 24 23 25 24 25 24 21 23 18 7 17 23 28 31 34 37 37 37 37 37 39 39 38 36 36 35 34 33 33 33 32 32 30 29 29
3 2 3 1 2 1 4 3 6 11 12 11 16 22 22 22 23 24 25 25 23 19 19 16 13 13 18 23 28 34 38 37 37 38 38 39 39 39 39 39 38 36 35 36 36 35 33 32 31
3 5 3 2 3 2 3 5 11 15 14 19 19 20 20 20 20 22 23 25 27 26 23 17 14 12 16 17 22 28 33 36 37 38 38 38 39 39 40 40 42 41 39 38 39 39 37 35 35
Wind_Direction
319 354 316 292 250 212 263 80 107 114 123 81 50 1 35 46 19 116 138 163 184 171 162 148 145 142 144 135 126 120 130 113 105 101 100 86 85 82 79 74 77 86 79 82 75 73 75 72 74
336 19 286 263 246 269 264 118 82 73 91 81 93 189 238 89 71 137 143 176 154 172 155 151 151 149 143 138 131 131 117 116 109 101 101 90 88 85 89 78 81 90 88 83 77 77 79 77 81
339 323 273 202 224 263 3 85 98 99 115 120 132 16 32 86 110 138 165 157 155 165 157 161 151 148 145 150 142 131 135 125 116 107 102 94 99 92 89 92 89 84 84 82 79 81 78 80 86
311 245 254 267 264 242 303 95 107 121 113 73 9 98 94 85 128 174 151 151 154 153 186 164 157 155 149 149 147 145 140 134 132 129 119 107 102 107 104 97 91 85 84 84 81 81 83 87 88
265 273 241 231 243 273 87 89 138 159 128 135 214 130 105 129 164 172 146 156 155 163 195 178 162 159 157 159 154 147 148 143 137 128 121 120 112 101 97 94 90 90 85 82 79 78 80 84 89
287 248 264 241 248 243 101 120 174 133 122 102 170 130 107 157 170 154 154 159 161 170 194 176 169 162 168 160 164 176 165 161 154 138 133 117 110 104 101 100 94 91 87 85 81 77 76 76 79
257 299 272 283 282 258 119 125 187 174 138 155 108 90 139 151 165 160 157 161 162 170 191 187 177 174 173 170 172 166 166 163 157 152 145 132 117 102 97 91 95 94 96 91 85 81 82 81 76
309 272 277 278 281 295 91 118 21 339 73 122 151 251 155 165 165 161 158 166 168 170 179 211 192 183 181 182 180 181 186 175 164 160 151 138 115 102 106 98 100 94 98 96 90 86 85 82 82
279 280 263 262 258 278 99 138 141 247 131 140 145 78 149 172 162 163 166 173 176 179 179 192 210 201 180 197 195 191 185 182 178 168 162 149 157 112 125 108 104 118 110 95 83 76 75 84 84
232 279 273 345 354 336 96 328 153 165 212 157 134 121 163 168 169 173 176 180 183 187 181 180 202 211 190 216 212 205 197 198 190 175 160 184 107 269 299 101 113 98 88 81 76 72 72 87 88
245 240 291 346 333 338 340 320 274 230 264 205 182 179 178 174 175 182 186 190 191 193 188 190 187 191 193 201 228 220 206 203 196 192 199 171 195 230 240 211 177 86 66 101 82 96 86 71 61
289 273 264 317 312 336 288 282 289 223 258 288 222 201 184 184 187 190 192 195 197 199 199 193 197 193 203 199 224 208 211 214 207 217 210 210 207 213 237 271 298 346 57 77 86 77 65 86 66
265 259 282 295 275 279 265 273 278 279 260 254 230 173 192 197 199 199 200 197 201 204 208 198 204 200 204 206 212 211 216 220 216 221 220 216 210 206 211 230 240 238 227 197 142 111 87 85 74
307 324 296 286 272 255 257 259 261 251 254 260 237 206 206 208 204 204 201 202 203 208 214 210 208 207 202 206 213 205 217 225 220 227 222 216 215 209 211 226 238 235 216 202 173 137 94 87 95
310 285 278 255 235 224 258 279 248 251 247 247 246 234 211 213 210 209 209 205 205 207 214 219 212 212 205 207 210 208 210 221 221 227 227 218 216 209 209 224 231 227 211 203 196 183 144 163 79
256 252 267 134 168 128 122 270 283 283 231 226 233 246 231 215 216 216 215 210 207 204 211 218 219 216 210 207 208 217 213 214 222 225 226 223 218 214 216 220 225 223 220 211 208 194 195 209 117
193 284 240 159 187 141 175 278 302 321 290 278 265 247 233 225 214 216 214 214 204 205 207 216 221 220 218 212 211 221 220 224 223 223 225 225 223 223 224 226 222 225 220 214 213 216 227 238 248
345 335 335 323 175 206 243 262 274 280 271 255 223 245 236 228 223 215 211 213 206 206 208 214 222 220 221 216 214 219 223 227 226 223 224 228 230 228 228 226 224 225 222 218 217 226 242 249 254
322 302 295 289 89 2 289 292 284 277 287 263 234 223 237 257 219 216 209 210 209 205 205 211 216 222 215 219 214 216 223 223 229 228 225 228 232 230 229 227 224 225 225 222 225 230 232 233 202
294 289 284 318 30 326 294 294 292 38 296 303 269 225 227 239 226 205 208 207 210 207 207 210 217 223 222 220 223 223 228 234 236 234 232 230 233 233 230 227 226 227 226 226 228 231 229 221 205
281 275 318 343 322 276 280 250 99 41 40 46 47 15 320 252 262 199 205 209 211 211 210 210 215 222 226 223 223 226 228 234 234 235 234 231 233 234 235 230 229 230 232 229 230 230 227 221 204
286 18 343 321 335 311 18 275 59 61 60 48 54 48 36 17 333 291 217 211 214 217 216 221 217 222 228 225 224 224 227 228 235 237 239 236 235 235 235 234 233 232 234 234 234 233 228 225 220
330 342 298 304 297 304 165 117 113 82 71 58 43 44 49 47 27 330 276 224 220 222 226 222 227 224 227 227 229 230 233 237 239 240 240 241 237 237 237 236 235 236 237 236 235 236 232 230 227
331 290 269 224 237 256 153 177 9 83 91 68 51 42 32 41 34 17 5 240 216 227 229 225 228 231 228 230 231 234 238 238 238 239 237 239 238 236 236 236 236 237 237 239 238 236 237 235 232
242 277 299 157 177 227 132 307 154 115 84 92 74 46 36 38 35 35 21 18 223 234 229 229 226 230 234 233 235 237 241 242 243 243 243 242 240 238 235 237 236 238 239 239 240 239 240 236 236
293 4 310 306 4 357 177 208 177 136 154 85 67 50 41 39 36 33 28 19 24 221 230 233 229 229 234 239 240 242 243 244 246 246 244 246 248 247 244 241 242 240 240 240 241 240 239 239 237
133 227 338 303 239 292 182 76 82 143 178 224 63 43 44 29 27 29 29 29 15 19 244 243 240 239 238 240 246 246 247 246 247 247 245 248 250 249 248 244 243 244 241 241 241 243 242 244 243
252 331 288 245 285 283 211 168 183 172 165 68 52 53 37 28 23 23 24 24 26 21 8 329 258 261 252 244 244 251 253 252 251 250 247 246 250 249 249 248 244 243 243 241 241 244 245 245 246
166 244 223 278 243 284 333 349 119 120 63 63 55 43 40 33 23 22 23 23 23 22 27 8 333 297 278 261 250 247 256 257 256 253 252 250 248 248 247 250 250 245 243 243 243 245 246 248 248
349 337 325 185 330 263 132 283 110 87 70 63 55 42 39 32 24 19 19 18 19 17 16 7 15 351 314 300 270 260 258 261 261 259 255 252 251 249 247 247 250 250 246 243 244 246 246 247 249